Wind_Speed
15 11 10 8 6 7 6 6 6 7 8 8 10 11 11 13 15 17 19 22 23 23 26 28 30 34 35 35 32 22 18 11 12 12 13 14 17 15 16 18 20 18 18 20 18
12 10 8 6 2 3 3 3 5 4 4 5 6 8 8 9 10 11 14 16 19 22 24 11 19 9 24 28 23 24 26 16 12 11 13 10 13 16 17 20 22 19 21 19 18
13 8 6 5 2 3 4 5 4 5 6 4 4 4 4 4 6 7 10 12 14 17 26 20 22 18 2 15 17 22 22 21 17 13 10 7 5 7 11 16 19 21 22 19 18
15 11 8 8 7 7 7 10 11 10 10 9 7 7 6 5 4 4 5 7 9 10 12 16 4 10 7 13 15 16 15 15 15 16 13 10 7 5 9 10 12 15 17 16 17
17 15 13 13 12 11 10 11 12 14 15 14 13 12 12 11 10 9 6 6 7 9 8 7 6 0 8 10 14 13 13 10 11 13 15 13 9 7 2 8 14 14 14 14 13
23 20 17 17 16 15 13 13 14 14 17 17 17 16 16 16 14 12 13 10 7 7 11 9 13 10 14 6 7 8 9 7 6 9 10 12 11 11 8 2 8 13 13 14 15
28 26 25 23 21 20 20 18 20 20 21 22 21 19 20 20 20 19 18 16 14 10 9 8 9 10 7 6 11 9 5 3 7 8 7 8 12 14 11 8 3 13 16 18 17
31 31 29 29 28 25 24 24 24 24 24 24 25 25 22 23 23 22 22 22 20 18 15 14 15 15 13 7 11 13 9 13 13 9 6 6 9 13 15 12 7 6 16 20 19
36 34 33 29 29 28 29 29 26 27 29 28 28 30 27 26 26 26 26 25 24 23 19 20 21 17 15 9 6 13 17 13 13 12 8 5 4 8 12 13 8 4 13 22 23
38 36 35 34 33 33 31 31 32 32 29 29 31 32 29 29 30 30 29 28 25 24 23 22 20 17 15 13 20 22 13 16 15 16 14 9 5 3 5 9 9 3 10 23 26
43 41 40 38 38 38 37 38 35 34 35 35 35 35 34 34 35 35 34 30 28 27 25 22 19 18 17 20 24 26 28 23 18 18 14 4 7 13 4 2 4 3 7 19 26
50 49 48 45 42 45 45 42 40 39 41 42 40 39 40 39 38 37 37 33 30 28 27 24 21 17 19 19 24 29 30 21 29 22 15 7 8 11 9 7 4 2 4 15 24
53 54 55 52 50 48 47 46 45 43 43 46 45 45 43 43 41 39 38 37 32 29 28 28 23 21 18 20 24 28 34 35 31 22 21 18 28 16 12 13 9 7 8 9 21
59 58 57 58 55 56 56 54 53 53 52 52 49 46 47 47 45 45 43 36 32 29 29 29 25 23 20 20 22 27 29 29 29 24 25 27 29 29 25 19 15 13 13 14 16
68 65 64 62 63 61 60 60 59 59 59 59 57 55 52 50 48 47 41 34 31 30 29 29 26 21 20 21 23 26 25 25 26 24 30 32 34 30 22 20 20 17 17 20 22
71 70 67 67 67 65 65 63 62 61 61 60 59 57 51 47 45 41 38 34 31 30 27 25 23 21 20 21 22 23 21 22 23 25 27 37 31 28 22 14 20 24 28 24 28
64 64 64 63 63 62 61 60 58 56 55 52 48 45 43 41 39 38 36 32 31 29 26 27 25 25 23 21 21 21 21 24 23 23 26 29 37 30 34 24 31 18 33 30 31
52 53 53 54 53 51 51 52 52 47 44 44 41 39 37 36 34 33 32 31 31 30 31 28 28 28 26 22 21 21 23 26 24 24 27 28 29 42 41 34 41 23 27 32 35
43 43 43 43 43 42 42 45 41 37 38 37 35 33 32 32 32 32 31 31 31 31 32 31 25 29 28 25 24 22 25 27 28 28 33 30 28 33 43 50 52 46 36 39 39
39 38 39 39 38 36 36 40 34 35 34 32 31 31 30 30 30 30 31 32 32 32 31 35 30 31 27 29 26 25 27 30 31 31 38 35 32 32 34 46 54 57 55 52 45
41 39 42 38 38 38 41 42 37 34 36 35 33 30 29 30 29 31 31 33 33 32 31 33 34 32 30 33 29 30 31 34 32 34 38 41 36 35 37 34 36 40 54 57 55
41 35 42 37 37 38 42 43 38 36 39 40 38 37 34 32 30 33 33 32 33 32 35 35 35 35 32 40 38 36 37 36 35 36 40 46 40 39 38 34 39 37 40 44 45
35 34 39 35 35 35 35 35 32 33 37 37 36 38 38 36 38 40 36 37 36 37 38 40 39 41 38 41 41 38 38 37 36 36 39 47 42 47 44 38 38 40 39 44 43
39 38 39 38 39 37 40 40 37 36 38 40 38 40 41 42 45 44 40 40 39 38 45 45 43 43 43 46 44 42 41 41 40 40 42 46 52 56 49 39 34 38 38 41 47
43 39 43 45 44 42 43 43 42 41 45 42 43 46 46 46 46 46 47 43 43 44 44 49 48 48 47 51 49 46 45 46 45 46 47 48 56 61 54 48 38 39 39 39 44
49 47 49 48 47 48 47 45 45 45 42 46 48 51 49 48 48 49 51 52 49 47 50 51 53 53 50 52 54 50 50 52 52 52 52 54 59 67 61 55 49 41 41 41 43
52 51 52 51 53 53 49 44 46 43 44 48 51 55 51 51 54 57 57 56 56 54 51 51 55 55 54 56 56 56 57 62 60 60 59 60 63 71 67 63 59 55 49 50 52
Wind_Direction
150 151 134 120 100 98 95 78 74 78 79 71 73 66 58 55 51 49 50 53 52 49 65 61 72 69 68 58 57 64 71 71 78 153 175 176 189 194 195 193 196 210 208 206 210
168 167 158 151 113 67 46 31 37 47 59 50 55 65 59 55 44 38 42 45 50 37 64 42 44 45 48 57 53 54 56 80 82 106 180 201 209 208 205 212 214 213 209 221 229
183 182 191 194 214 275 313 313 322 337 343 354 9 25 32 44 40 28 20 31 40 42 67 53 37 59 29 28 52 29 48 62 81 103 125 146 185 223 234 233 225 220 213 207 211
204 208 228 242 265 277 287 301 305 303 302 310 320 324 337 349 31 7 7 5 17 24 57 60 45 45 4 13 20 13 46 40 51 68 96 116 131 175 209 220 223 230 227 233 231
222 233 240 249 256 264 282 291 293 296 301 300 301 305 311 316 332 339 331 335 345 350 6 22 37 140 354 20 34 20 28 36 32 36 54 76 92 91 121 201 208 203 209 210 213
235 242 249 252 255 259 266 280 284 289 292 290 295 296 296 301 306 312 310 304 297 320 326 340 341 350 351 38 51 355 33 4 20 25 36 44 51 67 68 136 202 195 191 195 202
243 250 253 255 257 256 261 268 274 280 284 286 290 293 298 300 302 302 303 301 291 275 278 289 304 324 322 303 321 346 357 2 349 347 359 22 27 31 42 46 169 198 184 181 182
249 250 255 258 255 252 258 262 265 271 277 282 285 286 289 294 295 294 293 295 294 295 290 290 280 278 283 274 310 300 265 285 283 285 313 346 9 14 14 27 61 171 177 175 174
249 250 250 253 251 254 259 262 264 269 272 277 285 287 289 289 292 292 291 291 289 288 283 282 283 288 277 265 266 264 276 282 272 281 276 271 339 356 10 13 29 118 169 165 166
246 249 247 249 247 253 257 261 263 268 274 278 279 281 284 289 290 288 290 289 286 285 285 284 278 274 264 229 205 248 230 267 259 282 273 268 261 293 354 14 2 75 160 162 163
246 247 248 251 253 254 260 264 263 269 271 273 276 281 280 284 291 289 292 295 290 291 293 291 283 264 255 249 241 220 241 254 269 275 249 251 251 265 271 310 349 332 164 170 167
245 247 251 253 254 260 265 264 265 267 272 276 277 281 283 286 291 292 293 294 291 291 289 290 282 269 258 254 231 240 245 248 251 263 234 181 174 251 234 243 231 231 210 184 181
244 249 253 253 254 260 260 260 261 263 268 271 275 278 282 284 288 288 294 293 286 283 283 284 278 274 260 246 249 242 241 245 251 253 233 213 210 242 228 231 229 211 206 197 191
246 249 252 256 257 256 258 259 261 261 263 266 268 271 275 278 282 286 288 284 279 277 276 275 275 271 263 254 243 242 243 243 245 229 225 212 208 226 220 228 223 222 214 202 191
250 251 254 254 258 260 259 261 262 262 266 267 269 272 273 276 278 282 279 275 272 269 267 267 267 260 252 254 251 243 241 243 247 232 215 222 222 223 230 223 234 239 224 217 206
252 254 254 256 256 258 261 263 264 265 265 268 270 271 272 271 274 273 270 268 264 262 259 254 249 247 249 248 248 250 253 250 245 237 229 220 224 223 212 165 235 235 225 221 222
249 251 254 256 257 260 261 265 265 266 269 270 270 271 270 269 268 265 263 259 254 250 242 240 240 238 246 249 249 245 250 251 248 246 237 229 220 219 212 199 198 234 205 216 225
247 250 252 254 256 258 261 263 263 266 268 268 268 269 268 265 260 257 253 250 246 239 234 235 231 230 240 248 249 246 245 246 247 248 241 237 219 219 218 208 220 241 221 225 227
245 246 249 251 254 255 256 259 262 265 264 266 268 268 265 261 255 250 246 244 242 237 235 231 234 236 239 248 248 248 246 248 247 247 248 236 225 221 220 218 231 234 233 232 235
246 246 248 248 251 253 255 256 256 257 261 263 263 265 263 259 251 246 244 242 239 239 238 230 232 240 241 243 247 251 252 248 248 250 254 252 238 236 231 222 232 239 244 240 231
246 247 250 250 251 253 254 258 257 256 259 258 260 259 257 254 251 246 242 243 243 241 242 236 237 234 244 242 245 253 254 253 252 253 257 258 244 240 237 231 237 244 248 249 248
244 244 249 247 248 249 251 255 257 257 256 257 258 257 256 255 252 249 246 247 246 241 242 240 245 245 238 248 243 248 255 254 251 254 257 260 260 256 240 230 242 246 252 251 250
243 240 248 245 247 248 253 257 255 257 254 263 256 258 256 252 248 245 247 246 244 249 245 248 245 248 248 248 256 259 259 261 259 259 259 262 261 255 247 242 244 244 246 256 257
246 245 252 251 250 251 251 254 257 256 259 260 259 257 255 250 250 251 248 246 247 242 251 252 252 253 254 256 254 255 256 253 251 252 253 258 258 258 253 240 239 249 247 250 252
250 250 245 250 251 252 254 255 256 253 259 262 257 256 253 251 253 253 257 250 246 246 245 253 253 252 253 256 256 255 254 252 252 250 250 255 262 262 253 254 233 232 238 244 254
249 247 248 251 252 254 254 256 258 259 262 264 259 259 255 251 248 248 249 253 249 241 247 247 248 251 252 254 257 256 254 253 251 250 250 251 256 261 262 263 257 242 232 236 255
248 248 250 250 252 253 256 258 260 261 258 259 259 257 258 251 247 245 246 247 252 252 245 247 255 249 249 252 255 256 254 253 251 252 252 250 256 264 263 263 265 263 250 237 245
Height
10999 11001 11004 11006 11007 11009 11010 11010 11011 11012 11013 11014 11015 11014 11013 11012 11012 11011 11010 11010 11008 11005 11004 11003 11003 11003 11002 11003 11002 11002 11005 10999 10997 10998 11000 11002 11004 11004 11004 11003 11004 11005 11007 11009 11011
10999 11002 11004 11006 11007 11009 11010 11011 11012 11013 11014 11015 11016 11016 11015 11015 11014 11013 11013 11012 11012 11008 11007 11006 11008 11002 11004 11003 11007 11008 11005 11000 11002 11002 11003 11004 11004 11004 11004 11004 11004 11005 11007 11009 11011
10998 11001 11003 11005 11007 11009 11009 11011 11012 11012 11013 11015 11016 11016 11017 11017 11016 11015 11014 11014 11014 11012 11010 11009 11009 11006 11007 11006 11008 11006 11006 11007 11007 11005 11004 11005 11005 11005 11005 11004 11005 11006 11008 11009 11011
10998 11000 11002 11003 11006 11008 11009 11010 11011 11012 11012 11013 11015 11016 11016 11017 11018 11016 11016 11016 11016 11015 11015 11014 11014 11011 11010 11009 11007 11010 11009 11011 11012 11009 11006 11006 11006 11005 11004 11004 11004 11004 11006 11008 11010
10997 10999 11001 11002 11005 11007 11009 11009 11010 11011 11011 11012 11014 11015 11015 11015 11016 11015 11015 11017 11017 11015 11017 11014 11013 11011 11009 11011 11010 11013 11012 11014 11015 11012 11009 11007 11006 11004 11003 11003 11003 11004 11005 11007 11009
10995 10997 10999 11001 11003 11004 11007 11008 11009 11010 11010 11011 11012 11013 11014 11014 11015 11015 11013 11014 11017 11018 11016 11015 11011 11013 11013 11014 11011 11015 11013 11016 11015 11013 11011 11010 11008 11005 11003 11002 11001 11002 11004 11007 11009
10992 10994 10996 10999 11000 11001 11003 11006 11007 11008 11008 11009 11010 11011 11012 11012 11012 11012 11012 11012 11013 11015 11019 11019 11017 11012 11013 11013 11014 11014 11013 11014 11014 11013 11013 11012 11011 11008 11005 11002 11000 11001 11002 11005 11008
10988 10990 10993 10995 10997 10999 11000 11002 11004 11005 11006 11007 11007 11009 11010 11010 11011 11011 11010 11010 11010 11011 11013 11013 11013 11015 11015 11011 11012 11011 11010 11008 11010 11013 11014 11014 11012 11011 11009 11005 11002 11002 11001 11004 11008
10984 10986 10988 10991 10993 10995 10996 10998 11000 11002 11003 11004 11004 11005 11006 11007 11007 11007 11007 11006 11006 11008 11010 11009 11010 11009 11008 11010 11008 11007 11006 11006 11008 11011 11014 11014 11013 11012 11011 11008 11006 11004 11003 11003 11009
10979 10981 10983 10986 10988 10990 10991 10993 10995 10997 10999 11000 11000 11002 11003 11002 11002 11002 11002 11002 11002 11003 11004 11004 11005 11005 11001 11006 11008 11004 11007 11006 11008 11011 11012 11012 11010 11009 11010 11010 11010 11008 11006 11005 11008
10973 10975 10977 10979 10981 10983 10985 10987 10989 10991 10992 10994 10995 10996 10997 10997 10996 10996 10996 10995 10996 10998 10998 10998 10999 10999 10998 10999 11002 11002 11003 11005 11007 11010 11010 11008 11010 11009 11008 11010 11012 11012 11010 11010 11010
10965 10968 10970 10972 10974 10977 10978 10980 10982 10983 10985 10986 10987 10989 10990 10991 10991 10990 10990 10989 10989 10991 10991 10993 10993 10993 10993 10996 10997 10998 10999 11001 11004 11005 11007 11006 11007 11005 11007 11010 11012 11013 11013 11012 11013
10958 10960 10963 10965 10967 10969 10971 10972 10974 10976 10976 10977 10979 10981 10983 10985 10985 10984 10984 10984 10983 10984 10985 10986 10988 10987 10989 10990 10990 10990 10992 10995 10999 11000 11001 11005 11002 11001 11004 11010 11012 11013 11014 11014 11014
10949 10951 10954 10956 10959 10960 10962 10963 10965 10967 10967 10968 10970 10972 10974 10976 10976 10976 10976 10977 10976 10976 10977 10978 10980 10982 10982 10984 10985 10985 10986 10988 10990 10993 10996 10997 10997 10997 11003 11010 11011 11013 11014 11015 11016
10939 10941 10944 10947 10949 10951 10952 10953 10955 10957 10958 10958 10960 10962 10964 10966 10967 10966 10967 10968 10968 10968 10968 10970 10972 10975 10976 10977 10978 10980 10980 10981 10982 10986 10990 10991 10996 10997 11006 11009 11011 11009 11011 11014 11015
10927 10930 10932 10934 10936 10939 10941 10941 10943 10946 10945 10948 10950 10951 10953 10954 10955 10955 10956 10958 10959 10959 10961 10963 10965 10967 10970 10972 10972 10973 10973 10973 10973 10976 10981 10985 10991 10996 11001 11003 11008 11004 11003 11007 11012
10916 10918 10921 10922 10925 10927 10930 10930 10931 10933 10935 10936 10939 10939 10941 10942 10944 10945 10947 10948 10950 10951 10953 10955 10958 10961 10963 10965 10966 10968 10968 10966 10969 10972 10972 10975 10985 10989 10989 10993 10993 10990 10994 11001 11005
10906 10908 10910 10912 10915 10918 10919 10919 10919 10924 10927 10924 10927 10928 10930 10931 10933 10935 10937 10939 10941 10944 10945 10948 10951 10954 10957 10960 10961 10963 10962 10961 10965 10965 10964 10966 10974 10977 10981 10981 10981 10981 10988 10996 11001
10895 10899 10901 10903 10904 10908 10909 10906 10913 10916 10914 10915 10917 10919 10920 10922 10924 10926 10929 10931 10933 10936 10939 10942 10947 10947 10950 10953 10955 10956 10956 10956 10957 10958 10955 10960 10964 10969 10973 10977 10975 10978 10983 10988 10992
10886 10890 10891 10894 10896 10899 10900 10896 10904 10903 10906 10907 10909 10910 10912 10914 10916 10918 10921 10923 10926 10929 10932 10936 10940 10940 10945 10945 10948 10949 10949 10949 10950 10951 10946 10952 10957 10959 10963 10970 10973 10972 10972 10975 10980
10877 10881 10880 10886 10888 10890 10889 10889 10894 10898 10897 10900 10902 10904 10905 10905 10909 10911 10913 10915 10919 10923 10926 10929 10931 10936 10937 10936 10939 10941 10942 10942 10945 10944 10940 10938 10947 10953 10956 10963 10965 10965 10963 10965 10969
10866 10873 10867 10875 10878 10880 10879 10880 10886 10889 10887 10891 10893 10895 10897 10899 10902 10902 10905 10910 10912 10916 10917 10920 10924 10927 10930 10924 10930 10932 10932 10935 10938 10937 10935 10929 10938 10940 10946 10955 10955 10957 10955 10955 10962
10858 10862 10859 10867 10868 10871 10872 10873 10878 10879 10879 10882 10883 10885 10888 10891 10891 10891 10899 10901 10904 10906 10909 10910 10913 10915 10920 10919 10921 10925 10926 10929 10930 10930 10928 10918 10928 10923 10932 10942 10947 10949 10952 10949 10953
10849 10853 10854 10857 10858 10861 10861 10863 10867 10870 10871 10872 10875 10876 10877 10878 10879 10882 10890 10892 10897 10900 10896 10899 10904 10907 10908 10906 10913 10915 10916 10917 10919 10919 10916 10911 10904 10905 10918 10934 10941 10941 10946 10942 10941
10840 10846 10843 10842 10847 10850 10850 10852 10855 10859 10858 10864 10864 10865 10866 10868 10870 10873 10874 10883 10886 10889 10892 10889 10892 10893 10896 10893 10899 10904 10905 10906 10908 10908 10908 10903 10889 10888 10907 10916 10932 10935 10936 10935 10931
10826 10830 10830 10833 10835 10836 10839 10842 10843 10847 10852 10850 10852 10852 10856 10860 10862 10863 10863 10862 10870 10875 10875 10878 10879 10881 10886 10884 10883 10891 10893 10892 10893 10895 10896 10896 10885 10871 10889 10898 10913 10927 10931 10929 10924
10813 10816 10818 10822 10821 10821 10828 10833 10831 10837 10838 10837 10837 10836 10846 10849 10848 10847 10848 10851 10853 10859 10867 10868 10864 10869 10872 10872 10874 10875 10875 10870 10877 10881 10883 10885 10877 10865 10877 10887 10894 10902 10913 10916 10912